AirNav   Air Wisconsin Airman Trainee
 
 993 users online  

AL93 Big Sky Airport
Huntsville, Alabama, USA

GOING TO HUNTSVILLE?


FAA INFORMATION EFFECTIVE 23 MAY 2019

Location

FAA Identifier: AL93
Lat/Long: 34-53-08.3160N / 086-42-35.9920W
34-53.138600N / 086-42.599867W
34.8856433 / -86.7099978
(estimated)
Elevation: 830 ft. / 253 m (estimated)
Variation: 01W (1990)
From city: 12 miles NW of HUNTSVILLE, AL
Time zone: UTC -5 (UTC -6 during Standard Time)
Zip code: 35773

Airport Operations

Airport use: Private use. Permission required prior to landing
Activation date: 02/1992
Control tower: no
ARTCC: MEMPHIS CENTER
FSS: ANNISTON FLIGHT SERVICE STATION
Attendance: IREG
Wind indicator: yes
Segmented circle: no

Airport Communications

WX AWOS-3PT at MDQ (8 nm E): 120.000 (256-829-1242)
WX AWOS-3 at FYM (13 nm NE): 135.275 (931-433-5916)
WX ASOS at HSV (15 nm S): PHONE 256-772-8074
WX ASOS at DCU (18 nm SW): 118.375 (256-350-4270)

Nearby radio navigation aids

VOR radial/distance  VOR name  Freq  Var
RQZr323/6.5ROCKET VORTAC112.2002E
DCUr039/18.2DECATUR VOR/DME112.8001W
MSLr073/40.0MUSCLE SHOALS VORTAC116.5001E

 
NDB name  Hdg/Dist  Freq  Var  ID
REDSTONE358/11.328704WHUA .... ..- .-

Airport Services

Runway Information

Runway 18/36

Dimensions: 2000 x 80 ft. / 610 x 24 m
Surface: turf, in good condition
RUNWAY 18  RUNWAY 36
Traffic pattern: leftright
Displaced threshold: no400 ft.
RWY 36 THRD MKD WITH CONES.
Obstructions: none60 ft. trees, 400 ft. from runway

Airport Ownership and Management from official FAA records

Ownership: Privately-owned
Owner: CHRISTOPHER A BARBER
437 WILL RABY RD
TONEY, AL 35773
Phone (256) 693-9544
Manager: CHRISTOPHER A BARBER
437 WILL RABY RD
TONEY, AL 35773
Phone (256) 693-9544

Airport Operational Statistics

Aircraft based on the field: 3
Single engine airplanes: 2
Ultralights: 1
    

Instrument Procedures

There are no published instrument procedures at AL93.

Some nearby airports with instrument procedures:

KMDQ - Huntsville Executive Airport / Tom Sharp Jr Field (8 nm E)
KHUA - Redstone Army Airfield (12 nm S)
KFYM - Fayetteville Municipal Airport (13 nm NE)
KHSV - Huntsville International Airport-Carl T Jones Field (15 nm S)
KDCU - Pryor Field Regional Airport (18 nm SW)
 
Loc | Ops | Rwys | IFR | FBO | Links
Com | Nav | Svcs | Stats | Notes
Area around AL93 (Big Sky Airport)
 
Road maps at: MapQuest Bing Google
 
Aerial photo
No photo
 
Sectional chart

 
Airport distance calculator
Flying to Big Sky Airport? Find the distance to fly.

From to AL93

Sunrise and sunset
Times for 16-Jun-2019
 Local
(UTC-5)
 Zulu
(UTC)
Morning civil twilight05:0410:04
Sunrise05:3410:34
Sunset20:0101:01
Evening civil twilight20:3101:31

Current date and time
Zulu (UTC)  16-Jun-2019 19:43:32
Local (UTC-5)  16-Jun-2019 14:43:32
 
METAR
KMDQ 
8nm E 
161915Z AUTO 20008KT 10SM SCT038 SCT048 SCT060 31/21 A2997 RMK A02 LTG DSNT NE T03140214
KHUA 
12nm S 
161858Z AUTO 20007KT 10SM FEW042 31/22 A2997 RMK AO2 LTG DSNT E SLP143 T03140218
KFYM 
13nm NE 
161915Z AUTO 21010KT 10SM SCT039 BKN045 30/21 A2997 RMK A01
KHSV 
15nm S 
161853Z 25009KT 10SM SCT041 BKN250 33/21 A2998 RMK AO2 SLP142 T03280211 $
KDCU 
18nm SW 
161853Z AUTO 21007KT 10SM FEW042 FEW055 31/21 A2998 RMK AO2 SLP143 T03110211
TAF
KHSV 
15nm S 
161740Z 1618/1718 23010G18KT P6SM VCTS BKN040CB FM162300 20008KT P6SM VCTS SCT040CB SCT250 FM170300 19006KT P6SM BKN035 BKN080 OVC200 FM170800 18004KT P6SM BKN080
NOTAMs
Click for the latest NOTAMs
NOTAMs are issued by the DoD/FAA and will open in a separate window not controlled by AirNav.

 

 
 

Would you like to see your business listed on this page?

 If your business provides an interesting product or service to pilots, flight crews, aircraft, or users of the Big Sky Airport, you should consider listing it here.  To start the listing process, click on the button below
 
Add a business
 

Other Pages about Big Sky Airport

Update a link
 
Copyright © AirNav, LLC. All rights reserved. Privacy Policy  Contact